| time (UTC) | temp C | wind direction | speed KPH | gust KPH | rain 1hr cm | rain 24hr cm | rain mn cm | humidity % | barometer mb |
| 20260504070250 | 12 | 117 | 0.0 | 3.2 | 0.00 | 0.00 | 0.00 | 79 | 1013.9 |
| 20260504050751 | 8 | 47 | 0.0 | 3.2 | 0.00 | 0.00 | 0.00 | 85 | 1014.1 |
| 20260504050250 | 8 | 51 | 0.0 | 3.2 | 0.00 | 0.00 | 0.00 | 85 | 1014.1 |
| 20260504045750 | 8 | 136 | 0.0 | 0.0 | 0.00 | 0.00 | 0.00 | 85 | 1014.1 |
| 20260504045250 | 8 | 136 | 0.0 | 3.2 | 0.00 | 0.00 | 0.00 | 85 | 1014.1 |
| 20260504044750 | 7 | 149 | 0.0 | 0.0 | 0.00 | 0.00 | 0.00 | 84 | 1014.0 |
| 20260504044250 | 7 | 148 | 0.0 | 0.0 | 0.00 | 0.00 | 0.00 | 84 | 1014.1 |
| 20260504043751 | 7 | 144 | 0.0 | 1.6 | 0.00 | 0.00 | 0.00 | 84 | 1014.1 |
| 20260504043250 | 7 | 142 | 0.0 | 1.6 | 0.00 | 0.00 | 0.00 | 84 | 1014.1 |
| 20260504042751 | 7 | 141 | 0.0 | 1.6 | 0.00 | 0.00 | 0.00 | 83 | 1014.0 |
| 20260504042250 | 7 | 146 | 0.0 | 0.0 | 0.00 | 0.00 | 0.00 | 83 | 1014.0 |
| 20260504041750 | 7 | 146 | 0.0 | 0.0 | 0.00 | 0.00 | 0.00 | 83 | 1014.1 |
| 20260504041251 | 8 | 146 | 0.0 | 0.0 | 0.00 | 0.00 | 0.00 | 83 | 1014.1 |
| 20260504040751 | 8 | 146 | 0.0 | 1.6 | 0.00 | 0.00 | 0.00 | 83 | 1014.0 |
| 20260504040250 | 8 | 146 | 0.0 | 0.0 | 0.00 | 0.00 | 0.00 | 83 | 1014.1 |
| 20260504035750 | 8 | 148 | 0.0 | 0.0 | 0.00 | 0.00 | 0.00 | 83 | 1014.1 |
| 20260504035251 | 8 | 153 | 0.0 | 1.6 | 0.00 | 0.00 | 0.00 | 83 | 1014.1 |
| 20260504034750 | 8 | 155 | 1.6 | 3.2 | 0.00 | 0.00 | 0.00 | 83 | 1014.1 |
| 20260504034251 | 8 | 184 | 0.0 | 1.6 | 0.00 | 0.00 | 0.00 | 82 | 1014.2 |
| 20260504033750 | 8 | 186 | 1.6 | 3.2 | 0.00 | 0.00 | 0.00 | 82 | 1014.2 |
| 20260504033250 | 8 | 133 | 0.0 | 1.6 | 0.00 | 0.00 | 0.00 | 82 | 1014.2 |
| 20260504032749 | 8 | 119 | 0.0 | 0.0 | 0.00 | 0.00 | 0.00 | 82 | 1014.1 |
| 20260504032251 | 8 | 119 | 0.0 | 1.6 | 0.00 | 0.00 | 0.00 | 81 | 1014.2 |
| 20260504031521 | 8 | 119 | 0.0 | 0.0 | 0.00 | 0.00 | 0.00 | 81 | 1014.2 |
| 20260504031022 | 8 | 119 | 0.0 | 0.0 | 0.00 | 0.00 | 0.00 | 81 | 1014.2 |
| 20260504030522 | 9 | 119 | 0.0 | 1.6 | 0.00 | 0.00 | 0.00 | 81 | 1014.2 |
| 20260504030021 | 9 | 119 | 0.0 | 1.6 | 0.00 | 0.00 | 0.00 | 82 | 1014.2 |
| 20260504025522 | 9 | 119 | 0.0 | 1.6 | 0.00 | 0.00 | 0.00 | 82 | 1014.2 |
| 20260504025022 | 8 | 119 | 3.2 | 3.2 | 0.00 | 0.00 | 0.00 | 82 | 1014.2 |
| 20260504024521 | 8 | 36 | 0.0 | 1.6 | 0.00 | 0.00 | 0.00 | 80 | 1014.2 |
| 20260504024022 | 9 | 57 | 0.0 | 1.6 | 0.00 | 0.00 | 0.00 | 80 | 1014.2 |
| 20260504023522 | 9 | 55 | 0.0 | 3.2 | 0.00 | 0.00 | 0.00 | 79 | 1014.2 |
| 20260504023022 | 9 | 76 | 0.0 | 1.6 | 0.00 | 0.00 | 0.00 | 79 | 1014.2 |
| 20260504022522 | 9 | 76 | 1.6 | 3.2 | 0.00 | 0.00 | 0.00 | 79 | 1014.2 |
| 20260504022021 | 9 | 88 | 1.6 | 1.6 | 0.00 | 0.00 | 0.00 | 79 | 1014.1 |
| 20260504021522 | 10 | 94 | 0.0 | 3.2 | 0.00 | 0.00 | 0.00 | 79 | 1014.2 |
| 20260504021021 | 10 | 130 | 1.6 | 3.2 | 0.00 | 0.00 | 0.00 | 79 | 1014.1 |
| 20260504020521 | 10 | 130 | 1.6 | 3.2 | 0.00 | 0.00 | 0.00 | 79 | 1014.2 |
| 20260504020020 | 10 | 157 | 1.6 | 3.2 | 0.00 | 0.00 | 0.00 | 78 | 1014.2 |
| 20260504015522 | 10 | 147 | 1.6 | 3.2 | 0.00 | 0.00 | 0.00 | 78 | 1014.2 |
| 20260504015020 | 10 | 139 | 0.0 | 3.2 | 0.00 | 0.00 | 0.00 | 78 | 1014.2 |
| 20260504014521 | 10 | 138 | 3.2 | 3.2 | 0.00 | 0.00 | 0.00 | 78 | 1014.3 |
| 20260504014022 | 10 | 142 | 0.0 | 3.2 | 0.00 | 0.00 | 0.00 | 77 | 1014.3 |
| 20260504013521 | 10 | 162 | 1.6 | 3.2 | 0.00 | 0.00 | 0.00 | 77 | 1014.3 |
| 20260504013022 | 10 | 125 | 1.6 | 3.2 | 0.00 | 0.00 | 0.00 | 77 | 1014.3 |
| 20260504012521 | 10 | 99 | 0.0 | 1.6 | 0.00 | 0.00 | 0.00 | 77 | 1014.3 |
| 20260504012022 | 10 | 95 | 0.0 | 1.6 | 0.00 | 0.00 | 0.00 | 77 | 1014.3 |
| 20260504011520 | 10 | 91 | 0.0 | 1.6 | 0.00 | 0.00 | 0.00 | 76 | 1014.3 |
| 20260504011022 | 10 | 61 | 0.0 | 1.6 | 0.00 | 0.00 | 0.00 | 75 | 1014.3 |
| 20260504010522 | 11 | 56 | 0.0 | 1.6 | 0.00 | 0.00 | 0.00 | 75 | 1014.3 |
| 20260504010021 | 11 | 56 | 1.6 | 1.6 | 0.00 | 0.00 | 0.00 | 74 | 1014.3 |
| 20260504005522 | 11 | 48 | 0.0 | 0.0 | 0.00 | 0.00 | 0.00 | 74 | 1014.3 |
| 20260504005022 | 11 | 48 | 0.0 | 1.6 | 0.00 | 0.00 | 0.00 | 73 | 1014.4 |
| 20260504004522 | 11 | 22 | 0.0 | 0.0 | 0.00 | 0.00 | 0.00 | 73 | 1014.3 |
| 20260504004021 | 11 | 21 | 1.6 | 1.6 | 0.00 | 0.00 | 0.00 | 72 | 1014.3 |
| 20260504003522 | 11 | 306 | 0.0 | 1.6 | 0.00 | 0.00 | 0.00 | 72 | 1014.3 |
| 20260504003022 | 11 | 319 | 0.0 | 1.6 | 0.00 | 0.00 | 0.00 | 72 | 1014.4 |
| 20260504002521 | 12 | 323 | 1.6 | 3.2 | 0.00 | 0.00 | 0.00 | 71 | 1014.3 |
| 20260504002021 | 12 | 335 | 1.6 | 3.2 | 0.00 | 0.00 | 0.00 | 71 | 1014.4 |
| 20260504001522 | 12 | 82 | 0.0 | 1.6 | 0.00 | 0.00 | 0.00 | 70 | 1014.4 |
| 20260504001022 | 12 | 82 | 0.0 | 1.6 | 0.00 | 0.00 | 0.00 | 69 | 1014.4 |
| 20260504000522 | 12 | 82 | 0.0 | 3.2 | 0.00 | 0.00 | 0.00 | 69 | 1014.3 |
| 20260504000022 | 12 | 155 | 0.0 | 1.6 | 0.00 | 0.00 | 0.00 | 67 | 1014.3 |
| 20260503235522 | 13 | 161 | 0.0 | 0.0 | 0.00 | 0.00 | 0.00 | 66 | 1014.3 |
| 20260503235022 | 13 | 161 | 0.0 | 1.6 | 0.00 | 0.00 | 0.00 | 66 | 1014.3 |
| 20260503234522 | 13 | 161 | 0.0 | 1.6 | 0.00 | 0.00 | 0.00 | 65 | 1014.3 |
| 20260503234021 | 13 | 161 | 0.0 | 0.0 | 0.00 | 0.00 | 0.00 | 64 | 1014.3 |
| 20260503233522 | 14 | 161 | 0.0 | 3.2 | 0.00 | 0.00 | 0.00 | 64 | 1014.2 |
| 20260503233021 | 14 | 162 | 0.0 | 3.2 | 0.00 | 0.00 | 0.00 | 63 | 1014.2 |
| 20260503232521 | 15 | 163 | 1.6 | 3.2 | 0.00 | 0.00 | 0.00 | 62 | 1014.2 |
| 20260503232021 | 15 | 30 | 0.0 | 1.6 | 0.00 | 0.00 | 0.00 | 62 | 1014.2 |
| 20260503231521 | 15 | 29 | 0.0 | 1.6 | 0.00 | 0.00 | 0.00 | 60 | 1014.2 |
| 20260503231021 | 15 | 29 | 0.0 | 1.6 | 0.00 | 0.00 | 0.00 | 59 | 1014.2 |
| 20260503230522 | 15 | 25 | 0.0 | 1.6 | 0.00 | 0.00 | 0.00 | 59 | 1014.2 |
| 20260503230020 | 15 | 25 | 0.0 | 1.6 | 0.00 | 0.00 | 0.00 | 58 | 1014.2 |
| 20260503225522 | 16 | 32 | 0.0 | 3.2 | 0.00 | 0.00 | 0.00 | 58 | 1014.2 |
| 20260503225021 | 16 | 108 | 0.0 | 1.6 | 0.00 | 0.00 | 0.00 | 58 | 1014.2 |
| 20260503224522 | 16 | 173 | 0.0 | 1.6 | 0.00 | 0.00 | 0.00 | 57 | 1014.1 |
| 20260503224021 | 16 | 223 | 0.0 | 4.8 | 0.00 | 0.00 | 0.00 | 56 | 1014.1 |
| 20260503223522 | 16 | 263 | 1.6 | 3.2 | 0.00 | 0.00 | 0.00 | 54 | 1014.1 |
| 20260503223022 | 16 | 279 | 1.6 | 3.2 | 0.00 | 0.00 | 0.00 | 54 | 1014.0 |
| 20260503222521 | 16 | 225 | 0.0 | 1.6 | 0.00 | 0.00 | 0.00 | 53 | 1014.0 |
| 20260503222022 | 16 | 192 | 0.0 | 1.6 | 0.00 | 0.00 | 0.00 | 52 | 1014.0 |
| 20260503221521 | 16 | 171 | 1.6 | 1.6 | 0.00 | 0.00 | 0.00 | 51 | 1014.0 |
| 20260503221022 | 16 | 171 | 1.6 | 3.2 | 0.00 | 0.00 | 0.00 | 51 | 1013.9 |
| 20260503220522 | 16 | 180 | 0.0 | 1.6 | 0.00 | 0.00 | 0.00 | 51 | 1013.9 |
| 20260503220022 | 16 | 157 | 1.6 | 8.0 | 0.00 | 0.00 | 0.00 | 51 | 1013.9 |
| 20260503215522 | 16 | 118 | 1.6 | 4.8 | 0.00 | 0.00 | 0.00 | 51 | 1014.0 |
| 20260503215021 | 17 | 95 | 0.0 | 3.2 | 0.00 | 0.00 | 0.00 | 51 | 1014.1 |
| 20260503214522 | 17 | 98 | 0.0 | 3.2 | 0.00 | 0.00 | 0.00 | 50 | 1014.1 |
| 20260503214021 | 17 | 134 | 1.6 | 4.8 | 0.00 | 0.00 | 0.00 | 50 | 1014.1 |
| 20260503213522 | 17 | 257 | 0.0 | 3.2 | 0.00 | 0.00 | 0.00 | 50 | 1014.1 |
| 20260503213021 | 17 | 261 | 0.0 | 6.4 | 0.00 | 0.00 | 0.00 | 49 | 1014.0 |
| 20260503212521 | 17 | 159 | 1.6 | 6.4 | 0.00 | 0.00 | 0.00 | 50 | 1014.0 |
| 20260503212021 | 17 | 168 | 3.2 | 8.0 | 0.00 | 0.00 | 0.00 | 49 | 1014.0 |
| 20260503211521 | 17 | 262 | 0.0 | 3.2 | 0.00 | 0.00 | 0.00 | 49 | 1013.9 |
| 20260503211021 | 17 | 250 | 1.6 | 6.4 | 0.00 | 0.00 | 0.00 | 49 | 1013.9 |
| 20260503210522 | 17 | 175 | 1.6 | 8.0 | 0.00 | 0.00 | 0.00 | 49 | 1013.9 |
| 20260503210021 | 17 | 179 | 0.0 | 4.8 | 0.00 | 0.00 | 0.00 | 50 | 1013.9 |
| 20260503205521 | 17 | 127 | 1.6 | 8.0 | 0.00 | 0.00 | 0.00 | 50 | 1013.9 |
| 20260503205020 | 17 | 169 | 1.6 | 4.8 | 0.00 | 0.00 | 0.00 | 50 | 1014.0 |
| 20260503204522 | 17 | 229 | 0.0 | 4.8 | 0.00 | 0.00 | 0.00 | 51 | 1014.0 |
| 20260503204020 | 17 | 157 | 3.2 | 4.8 | 0.00 | 0.00 | 0.00 | 51 | 1014.0 |
| 20260503203522 | 17 | 141 | 4.8 | 11.3 | 0.00 | 0.00 | 0.00 | 51 | 1014.0 |
| 20260503203022 | 17 | 161 | 1.6 | 8.0 | 0.00 | 0.00 | 0.00 | 52 | 1014.0 |
| 20260503202521 | 16 | 195 | 1.6 | 6.4 | 0.00 | 0.00 | 0.00 | 52 | 1014.0 |
| 20260503202022 | 16 | 210 | 0.0 | 4.8 | 0.00 | 0.00 | 0.00 | 52 | 1014.1 |
| 20260503201521 | 16 | 145 | 3.2 | 6.4 | 0.00 | 0.00 | 0.00 | 53 | 1014.1 |
| 20260503201022 | 16 | 155 | 0.0 | 1.6 | 0.00 | 0.00 | 0.00 | 54 | 1014.1 |
| 20260503200522 | 16 | 255 | 0.0 | 4.8 | 0.00 | 0.00 | 0.00 | 54 | 1014.0 |
| 20260503200021 | 16 | 138 | 3.2 | 4.8 | 0.00 | 0.00 | 0.00 | 54 | 1014.0 |
| 20260503195521 | 16 | 121 | 1.6 | 4.8 | 0.00 | 0.00 | 0.00 | 55 | 1014.0 |
| 20260503195022 | 16 | 143 | 0.0 | 0.0 | 0.00 | 0.00 | 0.00 | 57 | 1014.0 |
| 20260503194522 | 16 | 143 | 0.0 | 1.6 | 0.00 | 0.00 | 0.00 | 56 | 1014.1 |
| 20260503194021 | 16 | 122 | 0.0 | 3.2 | 0.00 | 0.00 | 0.00 | 54 | 1014.0 |
| 20260503193521 | 17 | 113 | 1.6 | 3.2 | 0.00 | 0.00 | 0.00 | 53 | 1014.0 |
| 20260503193022 | 17 | 152 | 0.0 | 1.6 | 0.00 | 0.00 | 0.00 | 51 | 1013.9 |
| 20260503192522 | 17 | 205 | 0.0 | 3.2 | 0.00 | 0.00 | 0.00 | 50 | 1013.9 |
| 20260503192022 | 17 | 37 | 0.0 | 1.6 | 0.00 | 0.00 | 0.00 | 50 | 1013.9 |
| 20260503191521 | 17 | 45 | 1.6 | 3.2 | 0.00 | 0.00 | 0.00 | 50 | 1013.7 |
| 20260503191022 | 17 | 76 | 1.6 | 3.2 | 0.00 | 0.00 | 0.00 | 49 | 1013.8 |
| 20260503190520 | 17 | 107 | 1.6 | 4.8 | 0.00 | 0.00 | 0.00 | 47 | 1013.8 |
| 20260503190021 | 17 | 93 | 1.6 | 4.8 | 0.00 | 0.00 | 0.00 | 47 | 1013.8 |
| 20260503185521 | 18 | 93 | 1.6 | 3.2 | 0.00 | 0.00 | 0.00 | 46 | 1014.0 |
| 20260503185021 | 18 | 133 | 0.0 | 4.8 | 0.00 | 0.00 | 0.00 | 46 | 1014.1 |
| 20260503184521 | 18 | 197 | 3.2 | 8.0 | 0.00 | 0.00 | 0.00 | 45 | 1014.1 |
| 20260503184021 | 18 | 279 | 4.8 | 9.7 | 0.00 | 0.00 | 0.00 | 45 | 1014.2 |
| 20260503183522 | 18 | 302 | 4.8 | 9.7 | 0.00 | 0.00 | 0.00 | 43 | 1014.1 |
| 20260503183021 | 19 | 254 | 4.8 | 8.0 | 0.00 | 0.00 | 0.00 | 43 | 1014.1 |
| 20260503182522 | 19 | 239 | 3.2 | 9.7 | 0.00 | 0.00 | 0.00 | 43 | 1014.0 |
| 20260503182022 | 19 | 165 | 8.0 | 11.3 | 0.00 | 0.00 | 0.00 | 42 | 1014.1 |
| 20260503181522 | 19 | 215 | 4.8 | 9.7 | 0.00 | 0.00 | 0.00 | 40 | 1014.2 |
| 20260503181022 | 19 | 206 | 3.2 | 9.7 | 0.00 | 0.00 | 0.00 | 40 | 1014.1 |
| 20260503180521 | 19 | 195 | 3.2 | 4.8 | 0.00 | 0.00 | 0.00 | 40 | 1014.1 |
| 20260503180021 | 20 | 117 | 6.4 | 11.3 | 0.00 | 0.00 | 0.00 | 39 | 1014.1 |
| 20260503175522 | 20 | 259 | 8.0 | 14.5 | 0.00 | 0.00 | 0.00 | 39 | 1014.1 |
| 20260503175022 | 20 | 326 | 8.0 | 16.1 | 0.00 | 0.00 | 0.00 | 39 | 1014.1 |
| 20260503174520 | 20 | 156 | 6.4 | 9.7 | 0.00 | 0.00 | 0.00 | 39 | 1014.1 |
| 20260503174020 | 20 | 296 | 8.0 | 19.3 | 0.00 | 0.00 | 0.00 | 39 | 1014.1 |
| 20260503173521 | 20 | 207 | 8.0 | 19.3 | 0.00 | 0.00 | 0.00 | 38 | 1014.2 |
| 20260503173021 | 20 | 200 | 3.2 | 16.1 | 0.00 | 0.00 | 0.00 | 39 | 1014.2 |
| 20260503172522 | 20 | 241 | 4.8 | 14.5 | 0.00 | 0.00 | 0.00 | 40 | 1014.1 |
| 20260503172022 | 20 | 208 | 3.2 | 9.7 | 0.00 | 0.00 | 0.00 | 40 | 1014.1 |
| 20260503171521 | 20 | 195 | 4.8 | 8.0 | 0.00 | 0.00 | 0.00 | 39 | 1014.0 |
| 20260503171021 | 20 | 246 | 3.2 | 8.0 | 0.00 | 0.00 | 0.00 | 40 | 1014.0 |
| 20260503170522 | 20 | 197 | 3.2 | 6.4 | 0.00 | 0.00 | 0.00 | 41 | 1014.0 |
| 20260503150520 | 23 | 253 | 9.7 | 24.1 | 0.00 | 0.00 | 0.00 | 30 | 1013.2 |
| 20260503131021 | 26 | 237 | 6.4 | 16.1 | 0.00 | 0.00 | 0.00 | 38 | 1013.0 |
| 20260503130522 | 26 | 173 | 8.0 | 16.1 | 0.00 | 0.00 | 0.00 | 32 | 1013.1 |
| 20260503110521 | 23 | 143 | 8.0 | 16.1 | 0.00 | 0.00 | 0.00 | 42 | 1013.9 |
| 20260503081521 | 21 | 170 | 6.4 | 12.9 | 0.00 | 0.00 | 0.00 | 50 | 1014.9 |
| 20260503081021 | 21 | 168 | 6.4 | 12.9 | 0.00 | 0.00 | 0.00 | 49 | 1014.9 |
| 20260503080521 | 21 | 198 | 6.4 | 11.3 | 0.00 | 0.00 | 0.00 | 50 | 1014.9 |